Flag for Israel Weather past 2 weeks in Eilat, Israel

Now
68 °F

Clear.


Feels Like: 68 °F
Forecast: 53 / 73 °F
Wind: 7 mph from Northeast

Location: Eilat

Current Time: Mar 3, 2015 at 10:34:53 PM

Latest Report: Mar 3, 2015 at 9:50 PM


Visibility: 10 mi

Pressure: 30.15 "Hg

Humidity: 33%

Dew point: 37 °F

Location of EilatLocation

Historic Weather in Eilat — Graph

°F

Eilat temperature yesterday

Maximum temperature yesterday: 75 °F (at 1:50 PM)
Minimum temperature yesterday: 55 °F (at 5:50 AM)
Average temperature yesterday: 69 °F

Past Weeks' High & Low Weather Summary

 TemperatureHumidityPressure
High90 °F (Feb 26, 12:50 PM)77% (Feb 17, 5:50 AM)30.24 "Hg (Feb 17, 5:50 AM)
Low46 °F (Feb 22, 5:50 AM)13% (Feb 27, 9:50 AM)29.80 "Hg (Feb 24, 1:50 PM)
Average67 °F41%30.04 "Hg
* Reported Feb 16 8:50 PM — Mar 3 8:50 PM, Eilat, Weather by CustomWeather, © 2015

Note: Actual official high and low records may vary slightly from our data, if they occured in-between our weather recording intervals... More about our weather records

Advertising

Eilat weather history for previous 24 hours

 ConditionsComfort  
Time TempWeatherWind HumidityBarometerVisibility
8:50 PM
Tue, Mar 3
68 °FClear.8 mph26%30.15 "Hg10 mi
7:50 PM72 °FClear.7 mph23%30.12 "Hg10 mi
6:50 PM73 °FClear.9 mph23%30.09 "Hg10 mi
5:50 PM75 °FClear.8 mph21%30.09 "Hg10 mi
4:50 PM77 °FSunny.14 mph19%30.07 "Hg10 mi
3:50 PM77 °FSunny.16 mph19%30.07 "Hg10 mi
2:50 PM79 °FSunny.14 mph18%30.07 "Hg10 mi
1:50 PM79 °FSunny.15 mph18%30.09 "Hg10 mi
12:50 PM77 °FSunny.16 mph19%30.09 "Hg10 mi
11:50 AM77 °FSunny.18 mph21%30.12 "Hg10 mi
10:50 AM75 °FSunny.17 mph25%30.15 "Hg10 mi
9:50 AM70 °FSunny.18 mph40%30.15 "Hg10 mi
8:50 AM64 °FSunny.17 mph56%30.18 "Hg10 mi
7:50 AM61 °FSunny.17 mph59%30.15 "Hg10 mi
6:50 AM59 °FSunny.13 mph63%30.15 "Hg10 mi
5:50 AM57 °FClear.10 mph67%30.12 "Hg10 mi
Weather by CustomWeather, © 2015

See weather overviewHow to use our weather pages